Simultaneous Nadir Overpasses (SNOs) Predictions

Prediction of SNOs between FY3D and AQUA Satellite Orbit:

Table of predicted SNOs for the next 14.0 days since TLE Epoch: 3/7/2020
Index Date (FY3D) Time (FY3D) Lat,Lon (FY3D) SZA (FY3D ) Date (AQUA) Time (AQUA) Lat,Lon (AQUA) SZA (AQUA ) Distance(km) Time Diff (sec)
1 03/08/2020 14:38:12 68.69,-174.09 109.94 03/08/2020 14:38:37 68.69,-174.10 109.92 0.56 25
2 03/08/2020 15:28:00 -71.77, -1.95 73.31 03/08/2020 15:27:09 -71.77, -1.99 73.24 1.44 51
3 03/11/2020 06:54:40 68.50, -58.43 109.07 03/11/2020 06:55:08 68.50, -58.44 109.05 0.43 28
4 03/11/2020 07:44:26 -71.70, 113.81 74.29 03/11/2020 07:43:38 -71.69, 113.77 74.22 1.53 48
5 03/13/2020 23:11:06 68.42, 57.36 108.09 03/13/2020 23:11:37 68.42, 57.34 108.07 0.94 31
6 03/14/2020 00:00:51 -71.67,-130.33 75.33 03/14/2020 00:00:06 -71.66,-130.39 75.26 2.28 45
7 03/16/2020 15:27:29 68.50, 173.37 106.94 03/16/2020 15:28:03 68.49, 173.32 106.92 2.10 34
8 03/16/2020 16:17:29 -70.97, -15.66 75.66 03/16/2020 16:16:46 -70.98, -15.62 75.62 1.55 43
9 03/19/2020 07:44:07 67.72, -71.72 106.67 03/19/2020 07:44:43 67.72, -71.70 106.62 0.97 36




NCC Satellite Simultaneous Nadir Overpasses (SNOs) Prediction Service
